DW8522 Weather Reports


time (UTC)temp
C
wind
direction
speed
KPH
gust
KPH
rain 1hr
cm
rain 24hr
cm
rain mn
cm
humidity
%
barometer
mb
20260831050024 14 257 11.3 27.4 0.00 0.05 0.05 80 1006.2
20260831044521 14 253 12.9 25.7 0.00 0.05 0.05 80 1006.2
20260831043020 14 211 11.3 25.7 0.00 0.05 0.05 83 1006.4
20260831041550 14 288 6.4 24.1 0.00 0.05 0.05 85 1006.5
20260831040020 15 252 11.3 32.2 0.00 0.05 0.05 79 1005.9
20260831034519 15 252 9.7 29.0 0.00 0.05 0.05 74 1005.8
20260831033022 16 295 14.5 29.0 0.00 0.05 0.05 73 1006.0
20260831031518 16 229 9.7 33.8 0.00 0.05 0.05 75 1005.9
20260831030016 16 256 12.9 35.4 0.00 0.05 0.05 76 1005.6
20260831024515 16 219 9.7 32.2 0.00 0.05 0.05 73 1005.6
20260831023014 16 264 17.7 40.2 0.00 0.05 0.05 73 1005.8
20260831021523 16 290 11.3 24.1 0.00 0.05 0.05 73 1005.8
20260831020014 16 192 9.7 35.4 0.05 0.05 0.05 75 1006.0
20260831014519 16 247 14.5 33.8 0.05 0.05 0.05 78 1006.0
20260831013012 15 290 12.9 29.0 0.05 0.05 0.05 82 1006.0
20260831011519 15 263 16.1 30.6 0.05 0.05 0.05 81 1006.2
20260831010009 17 290 17.7 37.0 0.00 0.00 0.00 71 1006.2
20260831004508 16 281 20.9 45.1 0.00 0.00 0.00 72 1006.3
20260831003007 16 256 16.1 38.6 0.00 0.00 0.00 70 1006.5
20260831001507 17 233 14.5 40.2 0.00 0.00 0.00 69 1006.4
20260831000004 16 331 9.7 24.1 0.00 0.00 0.00 75 1006.7
20260830234502 15 288 12.9 29.0 0.00 0.00 0.00 77 1006.8
20260830233006 16 276 14.5 40.2 0.00 0.00 0.00 71 1006.9
20260830231559 16 252 16.1 33.8 0.00 0.00 0.00 70 1006.8
20260830230059 16 257 12.9 30.6 0.00 0.00 0.00 72 1007.1
20260830224556 15 266 11.3 38.6 0.00 0.00 0.00 73 1007.0
20260830223130 15 243 16.1 33.8 0.00 0.00 0.00 75 1007.3
20260830221556 15 299 16.1 27.4 0.00 0.00 0.00 72 1007.3
20260830220052 15 271 16.1 29.0 0.00 0.00 0.00 73 1007.7
20260830214550 15 271 12.9 38.6 0.00 0.00 0.00 73 1007.5
20260830213049 15 291 17.7 32.2 0.00 0.00 0.00 74 1007.2
20260830211545 15 280 11.3 27.4 0.00 0.00 0.00 77 1007.5
20260830210042 14 267 12.9 30.6 0.00 0.00 0.00 77 1007.6
20260830204540 13 250 11.3 20.9 0.00 0.00 0.00 80 1007.7
20260830203041 13 279 11.3 29.0 0.00 0.00 0.00 78 1007.7
20260830201538 13 256 11.3 25.7 0.00 0.00 0.00 78 1007.7
20260830200038 13 256 14.5 35.4 0.00 0.00 0.00 77 1007.7
20260830194544 13 325 8.0 35.4 0.00 0.00 0.00 78 1007.8
20260830193039 13 228 9.7 38.6 0.00 0.00 0.00 78 1007.8
20260830191534 13 248 12.9 24.1 0.00 0.00 0.00 77 1007.8
20260830190031 13 243 9.7 29.0 0.00 0.00 0.00 78 1007.2
20260830184534 13 259 14.5 29.0 0.00 0.00 0.00 76 1007.0
20260830183027 13 288 12.9 41.8 0.00 0.00 0.00 76 1006.9
20260830181525 13 295 16.1 38.6 0.00 0.00 0.00 77 1006.6
20260830180022 13 252 8.0 33.8 0.00 0.00 0.00 78 1006.4
20260830174521 12 228 12.9 33.8 0.00 0.00 0.00 79 1006.1
20260830173018 13 217 11.3 32.2 0.00 0.00 0.00 78 1006.1
20260830171517 12 205 12.9 29.0 0.00 0.00 0.00 79 1006.2
20260830170016 13 293 9.7 32.2 0.00 0.00 0.00 80 1006.1
20260830164512 13 164 8.0 32.2 0.00 0.00 0.00 77 1006.1
20260830163014 13 290 11.3 30.6 0.00 0.00 0.00 76 1005.7
20260830161512 13 203 12.9 29.0 0.00 0.00 0.00 76 1005.8
20260830160009 13 288 8.0 22.5 0.00 0.00 0.00 76 1006.1
20260830154507 13 302 9.7 25.7 0.00 0.03 0.00 76 1005.7
20260830153004 13 289 9.7 30.6 0.00 0.03 0.00 75 1005.5
20260830151502 13 213 16.1 35.4 0.00 0.03 0.00 75 1005.3
20260830150002 13 215 14.5 33.8 0.00 0.03 0.00 74 1005.1
20260830144600 13 274 12.9 43.5 0.00 0.03 0.00 74 1005.0
20260830143058 13 226 8.0 24.1 0.00 0.03 0.00 79 1005.2
20260830141558 13 184 8.0 22.5 0.00 0.03 0.00 81 1005.3
20260830140054 13 278 12.9 37.0 0.00 0.03 0.00 80 1005.0
20260830134553 13 252 12.9 30.6 0.00 0.03 0.00 79 1004.9
20260830133059 13 207 9.7 30.6 0.00 0.03 0.00 80 1004.8
20260830131553 13 266 6.4 30.6 0.00 0.03 0.00 81 1004.9
20260830130057 13 235 8.0 22.5 0.00 0.03 0.00 79 1004.9
20260830124546 13 288 12.9 38.6 0.00 0.03 0.00 78 1004.5
20260830123044 13 289 14.5 30.6 0.00 0.03 0.00 78 1004.7
20260830121542 13 290 16.1 35.4 0.00 0.03 0.00 78 1004.4
20260830120045 14 222 9.7 35.4 0.00 0.03 0.00 78 1004.5
20260830114540 13 250 11.3 24.1 0.00 0.03 0.03 78 1004.8
20260830113038 14 248 8.0 27.4 0.00 0.03 0.03 78 1005.0
20260830111538 14 228 8.0 25.7 0.00 0.03 0.03 78 1005.1
20260830110136 14 240 9.7 29.0 0.00 0.03 0.03 78 1005.2
20260830104538 14 138 8.0 27.4 0.00 0.46 0.03 78 1005.0
20260830103037 14 248 9.7 33.8 0.00 0.46 0.03 77 1004.8
20260830101534 14 200 9.7 25.7 0.00 0.46 0.03 77 1004.8
20260830100047 14 228 12.9 27.4 0.00 0.46 0.03 79 1004.8
20260830094536 14 212 14.5 38.6 0.00 0.99 0.03 79 1004.6
20260830093033 14 231 14.5 40.2 0.00 0.99 0.03 78 1004.5
20260830091538 14 253 12.9 29.0 0.00 0.99 0.03 81 1004.4
20260830090031 14 263 12.9 37.0 0.00 0.99 0.03 82 1004.4
20260830084600 14 283 11.3 30.6 0.00 1.70 0.03 82 1004.0
20260830083029 13 150 12.9 29.0 0.00 1.70 0.03 82 1004.2
20260830081530 13 224 9.7 27.4 0.00 1.70 0.03 83 1003.9
20260830080029 14 244 11.3 25.7 0.00 1.70 0.03 79 1004.0
20260830074528 14 300 9.7 30.6 0.00 2.06 0.03 78 1003.8
20260830073029 14 176 6.4 29.0 0.00 2.06 0.03 77 1003.8
20260830071527 14 281 8.0 20.9 0.00 2.06 0.03 78 1003.8
20260830070025 14 257 12.9 33.8 0.00 2.06 0.03 77 1003.7
20260830064526 14 257 14.5 35.4 0.00 2.31 0.03 77 1003.5
20260830063025 15 288 8.0 25.7 0.00 2.31 0.03 76 1003.5
20260830061531 15 217 11.3 24.1 0.00 2.31 0.03 76 1003.5
20260830060028 15 242 6.4 25.7 0.00 2.31 0.03 77 1003.6
20260830054521 15 265 8.0 37.0 0.00 2.49 0.03 76 1003.6
20260830053021 15 190 6.4 33.8 0.00 2.49 0.03 76 1003.5
20260830051522 15 255 6.4 22.5 0.00 2.49 0.03 74 1003.2